When you browse on this site, cookies collect data to enhance your experience and personalize the content and advertising you see.
Visit our Privacy Policy to learn more. By continuing to use the site, you agree to this use of cookies and data.
  • In Hungary
  • List of Countries
  • For 7 days
  • Water Temperature
  • Weather Map
  • News
  • Weather Widgets
  • user-avatar
    Login

    Hourly Weather Zdziechow

    Today, 7 April, Tuesday

    Time Temperature Precipitation Wind Pressure Humidity
    00:00 +8°C° 0 mm 4 mps 758 mmHg 57%
    01:00 +8°C° 0 mm 4 mps 758 mmHg 56%
    02:00 +8°C° 0 mm 4 mps 758 mmHg 56%
    03:00 +8°C° 0 mm 5 mps 758 mmHg 55%
    04:00 +8°C° 0 mm 5 mps 758 mmHg 54%
    05:00 +8°C° 0 mm 5 mps 758 mmHg 53%
    06:00 +9°C° 0 mm 6 mps 758 mmHg 52%
    07:00 +9°C° 0 mm 6 mps 758 mmHg 50%
    08:00 +11°C° 0 mm 6 mps 758 mmHg 46%
    09:00 +13°C° 0 mm 6 mps 758 mmHg 42%
    10:00 +15°C° 0 mm 7 mps 758 mmHg 37%
    11:00 +16°C° 0 mm 6 mps 758 mmHg 37%
    12:00 +17°C° 0 mm 6 mps 758 mmHg 36%
    13:00 +19°C° 0 mm 6 mps 758 mmHg 35%
    14:00 +19°C° 0 mm 5 mps 758 mmHg 37%
    15:00 +19°C° 0 mm 5 mps 758 mmHg 39%
    16:00 +19°C° 0 mm 4 mps 757 mmHg 41%
    17:00 +18°C° 0 mm 3 mps 758 mmHg 47%
    18:00 +16°C° 0 mm 3 mps 758 mmHg 54%
    19:00 +14°C° 0 mm 2 mps 758 mmHg 61%
    20:00 +14°C° 0 mm 2 mps 759 mmHg 65%
    21:00 +13°C° 0 mm 2 mps 759 mmHg 69%
    22:00 +12°C° 0 mm 2 mps 759 mmHg 74%
    23:00 +10°C° 0 mm 2 mps 759 mmHg 78%

    Tomorrow, 8 April, Wednesday

    Time Temperature Precipitation Wind Pressure Humidity
    00:00 +9°C° 0 mm 2 mps 760 mmHg 83%
    01:00 +9°C° 0 mm 2 mps 760 mmHg 88%
    02:00 +8°C° 0 mm 2 mps 760 mmHg 86%
    03:00 +7°C° 0 mm 2 mps 759 mmHg 84%
    04:00 +7°C° 0 mm 2 mps 759 mmHg 83%
    05:00 +8°C° 0 mm 2 mps 759 mmHg 78%
    06:00 +8°C° 0 mm 2 mps 759 mmHg 74%
    07:00 +9°C° 0 mm 2 mps 759 mmHg 70%
    08:00 +12°C° 0 mm 2 mps 759 mmHg 65%
    09:00 +13°C° 0 mm 2 mps 759 mmHg 61%
    10:00 +15°C° 0 mm 2 mps 759 mmHg 56%
    11:00 +16°C° 0 mm 2 mps 758 mmHg 54%
    12:00 +19°C° 0 mm 1 mps 757 mmHg 52%
    13:00 +20°C° 0 mm 1 mps 757 mmHg 50%
    14:00 +20°C° 0 mm 1 mps 756 mmHg 48%
    15:00 +20°C° 0 mm 1 mps 756 mmHg 46%
    16:00 +21°C° 0 mm 1 mps 755 mmHg 45%
    17:00 +19°C° 0 mm 1 mps 755 mmHg 49%
    18:00 +18°C° 0 mm 1 mps 754 mmHg 53%
    19:00 +15°C° 0 mm 1 mps 754 mmHg 58%
    20:00 +14°C° 0 mm 1 mps 754 mmHg 57%
    21:00 +13°C° 0 mm 2 mps 754 mmHg 56%
    22:00 +13°C° 0 mm 2 mps 754 mmHg 55%
    23:00 +12°C° 0 mm 2 mps 754 mmHg 52%

    Day after tomorrow, 9 April, Thursday

    Time Temperature Precipitation Wind Pressure Humidity
    00:00 +10°C° 0 mm 2 mps 753 mmHg 50%
    01:00 +9°C° 0 mm 2 mps 753 mmHg 47%
    02:00 +9°C° 0 mm 2 mps 753 mmHg 50%
    03:00 +8°C° 0 mm 2 mps 752 mmHg 54%
    04:00 +8°C° 0 mm 2 mps 752 mmHg 57%
    05:00 +8°C° 0 mm 3 mps 752 mmHg 56%
    06:00 +9°C° 0 mm 3 mps 752 mmHg 56%
    07:00 +10°C° 0 mm 3 mps 752 mmHg 56%
    08:00 +12°C° 0 mm 4 mps 751 mmHg 52%
    09:00 +13°C° 0 mm 4 mps 751 mmHg 48%
    10:00 +15°C° 0 mm 4 mps 751 mmHg 44%
    11:00 +16°C° 0 mm 5 mps 751 mmHg 42%
    12:00 +17°C° 0 mm 5 mps 751 mmHg 40%
    13:00 +19°C° 0 mm 5 mps 751 mmHg 38%
    14:00 +17°C° 0 mm 5 mps 751 mmHg 44%
    15:00 +17°C° 0 mm 5 mps 750 mmHg 50%
    16:00 +16°C° 0 mm 5 mps 750 mmHg 56%
    17:00 +14°C° 0.1 mm 5 mps 751 mmHg 63%
    18:00 +13°C° 0.1 mm 4 mps 751 mmHg 70%
    19:00 +12°C° 0.1 mm 4 mps 751 mmHg 77%
    20:00 +11°C° 0 mm 4 mps 752 mmHg 77%
    21:00 +10°C° 0 mm 4 mps 752 mmHg 78%
    22:00 +9°C° 0 mm 3 mps 753 mmHg 79%
    23:00 +8°C° 0 mm 3 mps 753 mmHg 77%

    10 April, Friday

    Time Temperature Precipitation Wind Pressure Humidity
    00:00 +5°C° 0 mm 3 mps 753 mmHg 75%
    01:00 +4°C° 0 mm 3 mps 753 mmHg 73%
    02:00 +4°C° 0 mm 3 mps 754 mmHg 74%
    03:00 +3°C° 0 mm 3 mps 754 mmHg 76%
    04:00 +3°C° 0 mm 2 mps 754 mmHg 77%
    05:00 +4°C° 0 mm 2 mps 755 mmHg 75%
    06:00 +5°C° 0 mm 2 mps 755 mmHg 73%
    07:00 +6°C° 0 mm 1 mps 755 mmHg 71%
    08:00 +8°C° 0 mm 1 mps 756 mmHg 65%
    09:00 +9°C° 0 mm 1 mps 756 mmHg 59%
    10:00 +11°C° 0 mm 1 mps 756 mmHg 52%
    11:00 +12°C° 0 mm 1 mps 756 mmHg 49%
    12:00 +12°C° 0 mm 1 mps 756 mmHg 46%
    13:00 +13°C° 0 mm 2 mps 755 mmHg 43%
    14:00 +13°C° 0 mm 2 mps 755 mmHg 43%
    15:00 +13°C° 0 mm 2 mps 755 mmHg 42%
    16:00 +13°C° 0 mm 2 mps 754 mmHg 41%
    17:00 +12°C° 0 mm 2 mps 754 mmHg 45%
    18:00 +11°C° 0 mm 1 mps 754 mmHg 50%
    19:00 +9°C° 0 mm 1 mps 754 mmHg 54%
    20:00 +9°C° 0 mm 1 mps 754 mmHg 55%
    21:00 +8°C° 0 mm 1 mps 754 mmHg 57%
    22:00 +7°C° 0 mm 1 mps 755 mmHg 58%
    23:00 +7°C° 0 mm 1 mps 755 mmHg 60%

    11 April, Saturday

    Time Temperature Precipitation Wind Pressure Humidity
    00:00 +7°C° 0 mm 1 mps 754 mmHg 61%
    01:00 +7°C° 0 mm 1 mps 754 mmHg 63%
    02:00 +6°C° 0 mm 1 mps 754 mmHg 64%
    03:00 +6°C° 0 mm 1 mps 754 mmHg 65%
    04:00 +6°C° 0 mm 1 mps 754 mmHg 66%
    05:00 +6°C° 0 mm 1 mps 754 mmHg 64%
    06:00 +7°C° 0 mm 1 mps 754 mmHg 63%
    07:00 +7°C° 0 mm 2 mps 754 mmHg 61%
    08:00 +8°C° 0 mm 2 mps 754 mmHg 56%
    09:00 +10°C° 0 mm 2 mps 754 mmHg 51%
    10:00 +13°C° 0 mm 2 mps 754 mmHg 46%
    11:00 +13°C° 0 mm 2 mps 754 mmHg 43%
    12:00 +14°C° 0 mm 2 mps 754 mmHg 40%
    13:00 +15°C° 0 mm 2 mps 753 mmHg 38%
    14:00 +15°C° 0 mm 2 mps 753 mmHg 37%
    15:00 +15°C° 0 mm 2 mps 752 mmHg 37%
    16:00 +15°C° 0 mm 1 mps 752 mmHg 37%
    17:00 +14°C° 0 mm 1 mps 752 mmHg 41%
    18:00 +12°C° 0 mm 1 mps 752 mmHg 45%
    19:00 +11°C° 0 mm 1 mps 752 mmHg 49%
    20:00 +10°C° 0 mm 1 mps 752 mmHg 51%
    21:00 +9°C° 0 mm 2 mps 752 mmHg 53%
    22:00 +8°C° 0 mm 3 mps 752 mmHg 55%
    23:00 +8°C° 0 mm 3 mps 751 mmHg 56%

    12 April, Sunday

    Time Temperature Precipitation Wind Pressure Humidity
    00:00 +7°C° 0 mm 3 mps 751 mmHg 57%
    01:00 +7°C° 0 mm 3 mps 751 mmHg 58%
    02:00 +7°C° 0 mm 3 mps 750 mmHg 58%
    03:00 +7°C° 0 mm 3 mps 750 mmHg 59%
    04:00 +7°C° 0 mm 3 mps 750 mmHg 59%
    05:00 +7°C° 0 mm 3 mps 749 mmHg 60%
    06:00 +8°C° 0 mm 3 mps 749 mmHg 60%
    07:00 +9°C° 0 mm 3 mps 749 mmHg 60%
    08:00 +10°C° 0 mm 3 mps 749 mmHg 57%
    09:00 +13°C° 0 mm 2 mps 748 mmHg 54%
    10:00 +14°C° 0 mm 2 mps 748 mmHg 50%
    11:00 +14°C° 0 mm 3 mps 748 mmHg 48%
    12:00 +17°C° 0 mm 3 mps 747 mmHg 46%
    13:00 +18°C° 0 mm 3 mps 747 mmHg 43%
    14:00 +18°C° 0 mm 4 mps 747 mmHg 45%
    15:00 +18°C° 0 mm 4 mps 746 mmHg 46%
    16:00 +19°C° 0 mm 4 mps 746 mmHg 48%
    17:00 +17°C° 0 mm 3 mps 745 mmHg 54%
    18:00 +16°C° 0 mm 3 mps 745 mmHg 59%
    19:00 +14°C° 0 mm 3 mps 745 mmHg 65%
    20:00 +13°C° 0 mm 3 mps 745 mmHg 69%
    21:00 +12°C° 0 mm 3 mps 745 mmHg 73%
    22:00 +11°C° 0 mm 3 mps 745 mmHg 78%
    23:00 +11°C° 0 mm 3 mps 745 mmHg 83%
    Show more